Weather Roundup
Issued by NWS

Home | Current Version | Previous Version | Text Only | Print | Product List | Glossary On
Versions: 1 2 3 4 5 6 7 8 9 10 11 12 13 14 15 16 17 18 19 20 21 22 23 24 25 26 27 28 29 30 31 32 33 34 35 36 37 38 39 40 41 42 43 44 45 46 47 48 49 50
000
NZUS93 KARX 270259
HRRWXR

CURRENT HOURLY OBSERVATIONS ACROSS
MUCH OF THE UPPER MISSISSIPPI VALLEY
NATIONAL WEATHER SERVICE LA CROSSE WI
900 PM CST SUN FEB 26 2017


...SOUTHEAST MINNESOTA...


CITY           SKY/WX    TMP DP  RH WIND       PRES   REMARKS
ROCHESTER      FAIR      19  17  92 SW9       29.95R WCI   8
ROCHESTER/MAYO MOCLDY    28  23  82 CALM      29.97R
WINONA         FAIR      30  23  74 W6        29.99R WCI  24
AUSTIN         FAIR      16  12  86 SE3       29.96R
ALBERT LEA     FAIR      25  21  86 SW5       29.95R WCI  19
DODGE CENTER   NOT AVBL
PRESTON        FAIR      24  20  84 SW8       29.97R WCI  15
OWATONNA       MOCLDY    27  21  80 CALM      29.95R
FARIBAULT      CLOUDY    28  21  74 S3        29.95S
$$

...ELSEWHERE IN MINNESOTA...


CITY           SKY/WX    TMP DP  RH WIND       PRES   REMARKS
MINNEAPOLIS    CLOUDY    30  12  47 CALM      29.95R
INTNL FALLS    FAIR      13   2  61 W8        29.85R WCI   2
DULUTH         FAIR      10   0  63 W3        29.87R
RED WING       MOCLDY    25  16  68 CALM      29.96R
REDWOOD FALLS  CLOUDY    29  19  66 E5        29.92R WCI  24
MANKATO          N/A     29  22  75 CALM      29.96R
WORTHINGTON    FAIR      28  25  88 S13       29.91R WCI  17
FAIRMONT       FAIR      27  23  85 SW9       29.95R WCI  18
$$

...SOUTHWEST WISCONSIN...


CITY           SKY/WX    TMP DP  RH WIND       PRES   REMARKS
LA CROSSE      FAIR      31  23  72 SW8       29.99R WCI  23
PRAIRIE DU CHI FAIR      31  25  77 W6        30.00R WCI  25
BOSCOBEL       FAIR      31  24  75 SW5       30.01R WCI  26
LONE ROCK      NOT AVBL
PLATTEVILLE    FAIR      32  25  75 W6        29.99R WCI  26
FORT MC COY    FAIR      29  23  77 W5        29.97R WCI  24
MAUSTON-NEW LI FAIR      32  22  67 W7        29.94R WCI  26
VIROQUA        FAIR      28  23  82 CALM      29.95R
WIS DELLS      FAIR      32  22  67 W8        29.95R WCI  25
$$

...ELSEWHERE IN WISCONSIN...


CITY           SKY/WX    TMP DP  RH WIND       PRES   REMARKS
MILWAUKEE      FAIR      36  23  59 SW7       29.97R WCI  30
MADISON        FAIR      34  23  64 VRB5      29.97R WCI  30
GREEN BAY      FAIR      34  22  61 W10       29.91R WCI  26
EAU CLAIRE     NOT AVBL
BLACK RVR FLS  FAIR      30  22  73 SW6       29.96R WCI  24
MEDFORD        MOCLDY    26  17  68 NW5       29.88R WCI  21
WAUSAU         CLOUDY    29  23  78 W6        29.89R WCI  23
WIS RAPIDS     FAIR      30  22  72 W9        29.94R WCI  22
MARSHFIELD     FAIR      27  19  72 W8        29.90R WCI  19
RICE LAKE      FAIR      23  12  64 CALM      29.94R
$$

...NORTHEAST IOWA...


CITY           SKY/WX    TMP DP  RH WIND       PRES   REMARKS
WATERLOO       FAIR      23  20  88 SW3       30.01R
DUBUQUE        FAIR      31  24  75 NW3       30.00R
DECORAH        FAIR      27  23  86 SW3       29.98R
MASON CITY     FAIR      25  20  81 SW9       29.99R WCI  15
CHARLES CITY   FAIR      23  23 100 SW6       29.99R WCI  16
OELWEIN        FAIR      28  28 100 W7        30.00R WCI  21
$$

...ELSEWHERE IN IOWA...


CITY           SKY/WX    TMP DP  RH WIND       PRES   REMARKS
DES MOINES     FAIR      34  20  56 CALM      30.02R
IOWA CITY      FAIR      31  22  69 CALM      30.04R
FORT DODGE     FAIR      25  18  74 CALM      29.99R
MARSHALLTOWN   FAIR      27  24  89 CALM      30.00R
CEDAR RAPIDS   FAIR      28  23  81 NW7       30.00R WCI  21
$$

...NORTHERN ILLINOIS...


CITY           SKY/WX    TMP DP  RH WIND       PRES   REMARKS
CHICAGO-OHARE  FAIR      43  29  57 SW13      30.01R
CHICAGO-MIDWAY MOCLDY    42  23  46 SW10      30.04R
MOLINE         MOCLDY    37  30  75 CALM      30.03R
ROCKFORD       FAIR      37  29  72 SW6       30.02R WCI  32
PEORIA         FAIR      36  24  62 S9        30.07R WCI  29
$$

NOTE: "FAIR" INDICATES FEW OR NO CLOUDS BELOW 12,000 FEET WITH NO
SIGNIFICANT WEATHER AND/OR OBSTRUCTIONS TO VISIBILITY. WIND
SPEEDS ARE IN MILES-PER-HOUR.




USA.gov is the U.S. government's official web portal to all federal, state and local government web resources and services.